Regional Weather Roundup
Issued by NWS Kansas City/Pleasant Hill, MO

Home | Current Version | Previous Version | Text Only | Print | Product List | Glossary On
Versions: 1 2 3 4 5 6 7 8 9 10 11 12 13 14 15 16 17 18 19 20 21 22 23 24 25 26 27 28 29 30 31 32 33 34 35 36 37 38 39 40 41 42 43 44 45 46 47 48 49 50
000
ASUS43 KEAX 300310
RWREAX

WEATHER ROUNDUP FOR EASTERN KANSAS AND NORTHWEST MISSOURI
NATIONAL WEATHER SERVICE KANSAS CITY/PLEASANT HILL MO
1000 PM CDT SAT AUG 29 2015

KSZ040-057-103>105-MOZ028-029-037-043-300400-
...KANSAS CITY METROPOLITAN AREA...

CITY           SKY/WX    TMP DP  RH WIND       PRES   REMARKS
K.C. INTL      CLEAR     66  64  93 N7        30.04R
K.C. DOWNTOWN  CLEAR     71  66  84 NE3       30.03R
LEES SUMMIT    CLOUDY    72  67  84 N8        30.04R
OLATHE - IXD   PTCLDY    67  66  97 N6        30.05R
OLATHE - OJC   CLOUDY    71  67  87 N9        30.03R
LAWRENCE       CLEAR     67  64  90 CALM      30.04R

$$

MOZ001>008-011>017-020>025-030>033-038>040-044>046-053-054-300400-
...NORTHERN AND CENTRAL MISSOURI...

CITY           SKY/WX    TMP DP  RH WIND       PRES   REMARKS
ST. JOSEPH     CLEAR     62  61  96 N3        30.05R
MOSBY          MOCLDY    68  66  94 CALM      30.03R
WARRENSBURG    CLOUDY    72  70  94 CALM      30.02R
WHITEMAN AFB   MOCLDY    72  72 100 NE3       30.02R
CLINTON          N/A     70  70 100 CALM      30.03R FOG
SEDALIA        CLOUDY    74  70  87 CALM      30.03R
WARSAW         NOT AVBL
CHILLICOTHE      N/A     71  68  90 CALM      30.04R
KIRKSVILLE     CLOUDY    71  67  87 N7        30.05R

$$

MOZ041-047>049-056>058-063>065-088>090-097-300400-
...EASTERN AND SOUTHERN MISSOURI...

CITY           SKY/WX    TMP DP  RH WIND       PRES   REMARKS
ST. LOUIS INTL CLOUDY    79  68  69 S6        30.03R
SPIRIT OF STL  CLOUDY    77  70  79 CALM      30.01R
COLUMBIA       CLOUDY    74  70  87 E3        30.03R
JEFFERSON CITY MOCLDY    74  70  87 CALM      30.01R
ROLLA          CLOUDY    73  67  81 S6        30.03R
OSAGE BEACH    MOCLDY    73  68  83 E3        30.03S
SPRINGFIELD    PTCLDY    74  67  78 E6        30.02R
BRANSON        CLOUDY    73  64  73 CALM      30.03S
JOPLIN         PTCLDY    73  70  90 MISG      30.00R
WEST PLAINS    PTCLDY    69  64  84 CALM      30.07R

$$

IAZ060-094-KSZ022-034>040-054-083-096-NEZ052-066-093-300400-
...KANSAS...SOUTHEAST NEBRASKA AND IOWA...

CITY           SKY/WX    TMP DP  RH WIND       PRES   REMARKS
TOPEKA         PTCLDY    68  65  90 NE5       30.04R
MANHATTAN      PTCLDY    66  63  90 CALM      30.05R
EMPORIA        CLEAR     66  63  90 CALM      30.04R
CHANUTE        PTCLDY    70  66  87 N7        30.02R
WICHITA        PTCLDY    68  61  78 NE7       30.04R
OMAHA          MOCLDY    68  65  90 E6        30.06R
LINCOLN        PTCLDY    64  61  90 SE8       30.06R
FALLS CITY     CLEAR     62  61  96 NW3       30.06R
LAMONI         PTCLDY    67  65  93 N6        30.06R
DES MOINES     CLOUDY    70  63  78 NE6       30.06R

$$



USA.gov is the U.S. government's official web portal to all federal, state and local government web resources and services.